DLH4DM EDDM-EDDC

Flight info

Callsign DLH4DM
Flight time 0h 34m
Altitude 26000
Route AKINI1Q AKINI Y104 MAMOR L132 AGNAV/N0362F250 DCT SUPIL DCT KILNU L132 ABKIS
Aircraft A320/M-SDE3FGHIRWY/LB1

Departure

Time 2026-05-08 16:23
Airport Munich Airport (EDDM)

Arrival

Time 2026-05-08 16:58
Airport Dresden Airport (EDDC)
Time Latitude Longitude Altitude Speed Heading
2026-05-08 15:37 48.35237 11.79353 1478 ft 0 kts 263°
2026-05-08 16:10 48.35240 11.79386 1482 ft 4 kts 263°
2026-05-08 16:10 48.35243 11.79424 1475 ft 2 kts 263°
2026-05-08 16:11 48.35243 11.79459 1475 ft 4 kts 286°
2026-05-08 16:11 48.35231 11.79488 1482 ft 4 kts 335°
2026-05-08 16:11 48.35207 11.79497 1481 ft 4 kts 353°
2026-05-08 16:11 48.35199 11.79498 1483 ft 0 kts 353°
2026-05-08 16:14 48.35206 11.79497 1478 ft 2 kts 353°
2026-05-08 16:14 48.35240 11.79490 1472 ft 9 kts 353°
2026-05-08 16:14 48.35328 11.79476 1481 ft 14 kts 354°
2026-05-08 16:14 48.35435 11.79457 1482 ft 17 kts 353°
2026-05-08 16:15 48.35545 11.79437 1485 ft 15 kts 353°
2026-05-08 16:15 48.35660 11.79418 1478 ft 18 kts 354°
2026-05-08 16:15 48.35791 11.79395 1473 ft 20 kts 353°
2026-05-08 16:15 48.35909 11.79364 1483 ft 14 kts 334°
2026-05-08 16:16 48.36007 11.79330 1486 ft 13 kts 354°
2026-05-08 16:16 48.36080 11.79299 1471 ft 7 kts 306°
2026-05-08 16:16 48.36086 11.79232 1478 ft 6 kts 264°
2026-05-08 16:16 48.36081 11.79166 1485 ft 9 kts 264°
2026-05-08 16:17 48.36071 11.79040 1485 ft 16 kts 263°
2026-05-08 16:17 48.36062 11.78914 1473 ft 20 kts 263°
2026-05-08 16:17 48.36038 11.78607 1485 ft 20 kts 263°
2026-05-08 16:17 48.36020 11.78373 1475 ft 21 kts 263°
2026-05-08 16:18 48.36000 11.78121 1485 ft 27 kts 263°
2026-05-08 16:18 48.35981 11.77868 1481 ft 26 kts 263°
2026-05-08 16:18 48.35964 11.77644 1485 ft 23 kts 263°
2026-05-08 16:18 48.35949 11.77449 1485 ft 18 kts 264°
2026-05-08 16:19 48.35933 11.77244 1476 ft 19 kts 263°
2026-05-08 16:19 48.35930 11.77084 1480 ft 14 kts 298°
2026-05-08 16:19 48.35977 11.76996 1483 ft 12 kts 313°
2026-05-08 16:19 48.36045 11.76970 1480 ft 10 kts 353°
2026-05-08 16:20 48.36112 11.76958 1477 ft 12 kts 353°
2026-05-08 16:20 48.36167 11.76949 1485 ft 0 kts 353°
2026-05-08 16:21 48.36192 11.76944 1485 ft 13 kts 353°
2026-05-08 16:21 48.36286 11.76986 1476 ft 15 kts 52°
2026-05-08 16:22 48.36299 11.77056 1485 ft 0 kts 83°
2026-05-08 16:22 48.36302 11.77090 1485 ft 23 kts 83°
2026-05-08 16:22 48.36354 11.77758 1482 ft 101 kts 83°
2026-05-08 16:22 48.36463 11.79122 1481 ft 159 kts 83°
2026-05-08 16:23 48.36609 11.80975 1633 ft 197 kts 83°
2026-05-08 16:23 48.36754 11.83186 1939 ft 223 kts 83°
2026-05-08 16:23 48.36971 11.85455 3046 ft 214 kts 72°
2026-05-08 16:23 48.37648 11.87390 4009 ft 212 kts 49°
2026-05-08 16:24 48.38808 11.88788 4795 ft 219 kts 31°
2026-05-08 16:24 48.40167 11.90040 5375 ft 238 kts 31°
2026-05-08 16:24 48.41644 11.91419 5924 ft 262 kts 34°
2026-05-08 16:24 48.42946 11.93425 6649 ft 277 kts 54°
2026-05-08 16:25 48.44045 11.95855 6970 ft 284 kts 56°
2026-05-08 16:25 48.45143 11.98340 7049 ft 285 kts 56°
2026-05-08 16:25 48.46430 12.00666 7653 ft 292 kts 40°
2026-05-08 16:25 48.48068 12.02432 8763 ft 290 kts 25°
2026-05-08 16:26 48.49935 12.03508 9712 ft 292 kts
2026-05-08 16:26 48.51949 12.03800 10606 ft 292 kts 356°
2026-05-08 16:26 48.54023 12.03794 11507 ft 296 kts 356°
2026-05-08 16:26 48.56071 12.03787 12387 ft 300 kts 356°
2026-05-08 16:27 48.58177 12.03782 13270 ft 305 kts 357°
2026-05-08 16:27 48.60311 12.03785 14115 ft 309 kts 358°
2026-05-08 16:27 48.62467 12.04146 14877 ft 316 kts 11°
2026-05-08 16:27 48.64554 12.05249 15643 ft 322 kts 22°
2026-05-08 16:28 48.66608 12.06667 16424 ft 325 kts 22°
2026-05-08 16:28 48.68684 12.08094 17222 ft 329 kts 22°
2026-05-08 16:28 48.70776 12.09529 18003 ft 332 kts 22°
2026-05-08 16:28 48.72888 12.10980 18710 ft 336 kts 22°
2026-05-08 16:29 48.75030 12.12451 19359 ft 340 kts 22°
2026-05-08 16:29 48.77230 12.13981 19619 ft 358 kts 22°
2026-05-08 16:29 48.79548 12.15632 19832 ft 375 kts 23°
2026-05-08 16:29 48.81929 12.17358 20334 ft 383 kts 23°
2026-05-08 16:30 48.84348 12.19122 20917 ft 387 kts 23°
2026-05-08 16:30 48.86785 12.20899 21514 ft 391 kts 23°
2026-05-08 16:30 48.89256 12.22696 22110 ft 395 kts 22°
2026-05-08 16:30 48.91757 12.24483 22685 ft 399 kts 22°
2026-05-08 16:31 48.94292 12.26271 23251 ft 403 kts 22°
2026-05-08 16:31 48.96846 12.28061 23790 ft 407 kts 22°
2026-05-08 16:31 48.99442 12.29873 24248 ft 411 kts 21°
2026-05-08 16:31 49.02016 12.31673 24684 ft 415 kts 21°
2026-05-08 16:32 49.04689 12.33552 25121 ft 420 kts 21°
2026-05-08 16:32 49.07346 12.35430 25563 ft 424 kts 21°
2026-05-08 16:32 49.10035 12.37342 25963 ft 427 kts 22°
2026-05-08 16:32 49.12725 12.39257 26067 ft 422 kts 22°
2026-05-08 16:33 49.15325 12.41114 26085 ft 404 kts 21°
2026-05-08 16:33 49.17847 12.42915 26086 ft 398 kts 21°
2026-05-08 16:33 49.20315 12.44672 26086 ft 396 kts 21°
2026-05-08 16:33 49.22807 12.46447 26085 ft 395 kts 21°
2026-05-08 16:34 49.25324 12.48243 26081 ft 395 kts 21°
2026-05-08 16:34 49.27814 12.50019 26081 ft 394 kts 21°
2026-05-08 16:34 49.30269 12.51773 26088 ft 393 kts 22°
2026-05-08 16:34 49.32748 12.53501 26080 ft 390 kts 18°
2026-05-08 16:35 49.35327 12.54700 26085 ft 385 kts
2026-05-08 16:35 49.37953 12.55515 26083 ft 385 kts
2026-05-08 16:35 49.40576 12.56329 26082 ft 385 kts
2026-05-08 16:35 49.43196 12.57146 26081 ft 385 kts
2026-05-08 16:36 49.45823 12.57973 26083 ft 385 kts
2026-05-08 16:36 49.48446 12.58802 26082 ft 385 kts
2026-05-08 16:36 49.51063 12.59632 26089 ft 385 kts
2026-05-08 16:36 49.53679 12.60461 26091 ft 384 kts
2026-05-08 16:37 49.56302 12.61296 26097 ft 384 kts
2026-05-08 16:37 49.58930 12.62076 26097 ft 383 kts
2026-05-08 16:37 49.61559 12.62747 26097 ft 383 kts
2026-05-08 16:37 49.64191 12.63360 26102 ft 382 kts
2026-05-08 16:38 49.66829 12.63954 26102 ft 382 kts
2026-05-08 16:38 49.69452 12.64551 26100 ft 382 kts
2026-05-08 16:38 49.72081 12.65166 26098 ft 382 kts
2026-05-08 16:38 49.74710 12.65798 26112 ft 382 kts
2026-05-08 16:39 49.77326 12.66440 26111 ft 382 kts
2026-05-08 16:39 49.79954 12.67090 26110 ft 382 kts
2026-05-08 16:39 49.81725 12.67528 26114 ft 382 kts
2026-05-08 16:39 49.84315 12.68170 26114 ft 382 kts
2026-05-08 16:40 49.86932 12.68820 26113 ft 382 kts
2026-05-08 16:40 49.89557 12.69470 26111 ft 381 kts
2026-05-08 16:40 49.92182 12.70118 26115 ft 381 kts
2026-05-08 16:40 49.94822 12.70766 26124 ft 392 kts
2026-05-08 16:41 49.97558 12.71438 26120 ft 403 kts
2026-05-08 16:41 50.00317 12.72126 25714 ft 399 kts
2026-05-08 16:41 50.03052 12.72809 25168 ft 396 kts
2026-05-08 16:42 50.08440 12.74141 24139 ft 389 kts
2026-05-08 16:42 50.11094 12.74797 23619 ft 386 kts
2026-05-08 16:42 50.13739 12.75453 23047 ft 382 kts
2026-05-08 16:42 50.16354 12.76102 22501 ft 379 kts
2026-05-08 16:43 50.18951 12.76746 21989 ft 376 kts
2026-05-08 16:43 50.21520 12.77386 21479 ft 373 kts
2026-05-08 16:43 50.24070 12.78023 20993 ft 370 kts
2026-05-08 16:43 50.26611 12.78662 20508 ft 367 kts
2026-05-08 16:44 50.29131 12.79297 20039 ft 365 kts
2026-05-08 16:44 50.31624 12.79920 19580 ft 362 kts
2026-05-08 16:44 50.34102 12.80540 19137 ft 359 kts
2026-05-08 16:44 50.36542 12.81277 18701 ft 358 kts 14°
2026-05-08 16:45 50.38847 12.82789 18243 ft 359 kts 27°
2026-05-08 16:45 50.40981 12.84813 17750 ft 357 kts 29°
2026-05-08 16:45 50.43101 12.86831 17268 ft 355 kts 29°
2026-05-08 16:45 50.45205 12.88823 16812 ft 352 kts 29°
2026-05-08 16:46 50.47295 12.90798 16361 ft 350 kts 29°
2026-05-08 16:46 50.49370 12.92767 15931 ft 347 kts 29°
2026-05-08 16:46 50.51409 12.94699 15511 ft 345 kts 29°
2026-05-08 16:46 50.53455 12.96640 15092 ft 343 kts 29°
2026-05-08 16:47 50.55489 12.98577 14697 ft 341 kts 29°
2026-05-08 16:47 50.57513 13.00512 14293 ft 339 kts 29°
2026-05-08 16:47 50.59521 13.02429 13896 ft 337 kts 29°
2026-05-08 16:47 50.61522 13.04334 13458 ft 335 kts 29°
2026-05-08 16:48 50.63441 13.06381 13008 ft 334 kts 39°
2026-05-08 16:48 50.65171 13.08810 12587 ft 331 kts 40°
2026-05-08 16:48 50.66883 13.11227 12173 ft 329 kts 40°
2026-05-08 16:48 50.68577 13.13618 11777 ft 326 kts 40°
2026-05-08 16:49 50.70260 13.15995 11372 ft 323 kts 40°
2026-05-08 16:49 50.71915 13.18342 11175 ft 314 kts 40°
2026-05-08 16:49 50.73510 13.20608 11005 ft 304 kts 40°
2026-05-08 16:49 50.75065 13.22818 10697 ft 300 kts 40°
2026-05-08 16:50 50.76605 13.25008 10360 ft 297 kts 40°
2026-05-08 16:50 50.78136 13.27187 10155 ft 292 kts 40°
2026-05-08 16:50 50.79638 13.29327 10156 ft 291 kts 40°
2026-05-08 16:50 50.81139 13.31468 10157 ft 291 kts 40°
2026-05-08 16:51 50.82622 13.33582 10153 ft 289 kts 40°
2026-05-08 16:51 50.84138 13.35740 9760 ft 290 kts 40°
2026-05-08 16:51 50.85641 13.37880 9297 ft 290 kts 40°
2026-05-08 16:51 50.87114 13.39981 8879 ft 289 kts 41°
2026-05-08 16:52 50.88604 13.42111 8454 ft 288 kts 40°
2026-05-08 16:52 50.90125 13.44285 7665 ft 294 kts 40°
2026-05-08 16:52 50.91638 13.46452 6900 ft 292 kts 40°
2026-05-08 16:52 50.93113 13.48568 6243 ft 286 kts 40°
2026-05-08 16:53 50.95965 13.52673 5067 ft 268 kts 41°
2026-05-08 16:53 50.97330 13.54665 4651 ft 253 kts 42°
2026-05-08 16:53 50.98575 13.56444 4409 ft 236 kts 40°
2026-05-08 16:54 50.99778 13.58094 4106 ft 222 kts 40°
2026-05-08 16:54 51.00928 13.59660 3823 ft 213 kts 39°
2026-05-08 16:54 51.02029 13.61163 3543 ft 205 kts 41°
2026-05-08 16:54 51.03093 13.62616 3265 ft 199 kts 41°
2026-05-08 16:55 51.04128 13.64030 2992 ft 193 kts 41°
2026-05-08 16:55 51.05138 13.65413 2740 ft 189 kts 41°
2026-05-08 16:55 51.06105 13.66737 2496 ft 179 kts 41°
2026-05-08 16:55 51.07039 13.68017 2242 ft 176 kts 41°
2026-05-08 16:56 51.07929 13.69236 2003 ft 161 kts 41°
2026-05-08 16:56 51.08723 13.70325 1800 ft 143 kts 41°
2026-05-08 16:56 51.09445 13.71316 1589 ft 133 kts 41°
2026-05-08 16:56 51.10134 13.72261 1413 ft 130 kts 41°
2026-05-08 16:57 51.10813 13.73194 1236 ft 129 kts 42°
2026-05-08 16:57 51.11486 13.74118 1071 ft 127 kts 41°
2026-05-08 16:57 51.12150 13.75031 897 ft 127 kts 41°
2026-05-08 16:57 51.12810 13.75936 771 ft 119 kts 41°
2026-05-08 16:58 51.13375 13.76715 742 ft 94 kts 41°
2026-05-08 16:58 51.13737 13.77217 729 ft 44 kts 41°
2026-05-08 16:58 51.13845 13.77366 725 ft 6 kts 40°
2026-05-08 16:58 51.13902 13.77481 721 ft 15 kts 87°
2026-05-08 16:59 51.13849 13.77606 722 ft 14 kts 131°
2026-05-08 16:59 51.13797 13.77702 717 ft 12 kts 135°
2026-05-08 16:59 51.13732 13.77688 719 ft 10 kts 218°
2026-05-08 16:59 51.13671 13.77604 717 ft 14 kts 221°
2026-05-08 17:00 51.13600 13.77507 724 ft 11 kts 220°
2026-05-08 17:00 51.13548 13.77435 724 ft 11 kts 221°
2026-05-08 17:00 51.13486 13.77350 729 ft 13 kts 220°
2026-05-08 17:00 51.13414 13.77253 734 ft 15 kts 220°
2026-05-08 17:01 51.13330 13.77134 740 ft 18 kts 221°
2026-05-08 17:01 51.13237 13.77008 743 ft 19 kts 221°
2026-05-08 17:01 51.13137 13.76869 748 ft 19 kts 221°
2026-05-08 17:01 51.13039 13.76735 747 ft 19 kts 221°
2026-05-08 17:02 51.12944 13.76607 752 ft 17 kts 221°
2026-05-08 17:02 51.12860 13.76487 750 ft 13 kts 221°
2026-05-08 17:02 51.12801 13.76451 754 ft 8 kts 165°
2026-05-08 17:02 51.12762 13.76511 754 ft 8 kts 129°
2026-05-08 17:03 51.12723 13.76582 749 ft 8 kts 131°
2026-05-08 17:03 51.12691 13.76622 752 ft 4 kts 176°
2026-05-08 17:03 51.12670 13.76600 750 ft 3 kts 218°
2026-05-08 17:03 51.12653 13.76577 752 ft 3 kts 221°
2026-05-08 17:04 51.12639 13.76558 751 ft 2 kts 221°
2026-05-08 17:04 51.12627 13.76542 749 ft 2 kts 221°
2026-05-08 17:04 51.12626 13.76540 749 ft 0 kts 221°